sat.trackr.live / text

‹ back to catalog

STARLINK-36587

NORAD 67532 · 2026-014A

PAYLOAD ACTIVE UNKNOWN

§ Identity

Operator
Country
US
Launch date
2026-01-22
Launch site
AFWTR
Launch vehicle
Mass (kg)
RCS (m²)

Purposes: comms

External: N2YO · Heavens-Above · Gunter

§ Orbital elements

Epoch: 2026-05-25T03:31:09.965568Z

Period
93.91 min
Inclination
97.2855°
Eccentricity
0.0001397
Mean motion
15.33459318 rev/d
Perigee alt
464.5 km
Apogee alt
466.5 km
Semi-major
6,843.6 km
B*
4.4443e-4
RAAN
32.2388°
Arg perigee
90.7148°
Mean anomaly
269.4255°
Rev number
2,050

§ Raw data

STARLINK-365871 67532U 26014A   26145.14664312  .00014306  00000+0  44443-3 0  99962 67532  97.2855  32.2388 0001397  90.7148 269.4255 15.33459318 20508

JSON: /api/v1/satellites/67532 · /tle

For live sub-satellite position, see the globe view (requires WebGL).

§ Visibility from observer

Set your observer location to see the next 7 days of passes ≥ 10°. The values pass through the URL so the page stays shareable.

No JS? Fill the form by hand. The geolocation button needs JavaScript.